Flag Weather past 2 weeks in Bamenda, Cameroon

Now
86 °F

Partly sunny.


Feels Like: 97 °F
Forecast: 56 / 83 °F
Wind: No wind

Location: Douala Obs.

Current Time: Nov 27, 2014 at 12:01:34 PM

Latest Report: Nov 27, 2014 at 11:00 AM


Visibility: N/A

Pressure: 29.89 "Hg

Humidity: 75%

Dew point: 77 °F

Location of BamendaLocation

Historic Weather in Bamenda — Graph

°F

Bamenda temperature yesterday

Maximum temperature yesterday: 88 °F (at 2:00 PM)
Minimum temperature yesterday: 75 °F (at 1:00 AM)
Average temperature yesterday: 81 °F

Past Weeks' High & Low Weather Summary

 TemperatureHumidityPressure
High91 °F (Nov 21, 2:00 PM)100% (Nov 12, 8:00 PM)29.95 "Hg (Nov 12, 8:00 PM)
Low72 °F (Nov 18, 3:00 AM)52% (Nov 18, 2:00 PM)29.74 "Hg (Nov 15, 3:00 PM)
Average81 °F88%29.85 "Hg
* Reported Nov 12 11:00 AM — Nov 27 11:00 AM, Bamenda, Weather by CustomWeather, © 2014

Note: Actual official high and low records may vary slightly from our data, if they occured in-between our weather recording intervals... More about our weather records

Advertising

Bamenda weather history for previous 24 hours

 ConditionsComfort  
Time TempWeatherWind HumidityBarometerVisibility
11:00 AM
Nov 27
86 °FPartly sunny.No wind75%29.89 "HgN/A
10:00 AM84 °FPartly sunny.5 mph79%29.89 "HgN/A
9:00 AM84 °FPartly sunny.No wind79%29.89 "HgN/A
8:00 AM79 °FPartly sunny.No wind94%29.89 "Hg4 mi
7:00 AM77 °FFog.No wind100%29.86 "Hg2 mi
6:00 AM77 °FFog.No wind100%29.86 "Hg2 mi
5:00 AM77 °FPassing clouds.No wind100%29.83 "HgN/A
4:00 AM77 °FPassing clouds.No wind100%29.83 "HgN/A
3:00 AM77 °FPassing clouds.No wind100%29.83 "HgN/A
2:00 AM77 °FPassing clouds.No wind100%29.83 "HgN/A
1:00 AM77 °FPassing clouds.No wind100%29.86 "HgN/A
12:00 AM79 °FPassing clouds.No wind94%29.86 "HgN/A
11:00 PM
Nov 26
79 °FPassing clouds.No wind94%29.86 "HgN/A
10:00 PM79 °FPassing clouds.No wind94%29.86 "HgN/A
9:00 PM81 °FPassing clouds.No wind89%29.83 "HgN/A
8:00 PM81 °FPassing clouds.No wind89%29.83 "HgN/A
7:00 PM81 °FPassing clouds.5 mph89%29.80 "HgN/A
6:00 PM82 °FPassing clouds.9 mph79%29.77 "HgN/A
5:00 PM84 °FScattered clouds.9 mph74%29.77 "HgN/A
4:00 PM88 °FScattered clouds.12 mph70%29.77 "HgN/A
3:00 PM88 °FPartly sunny.12 mph70%29.77 "HgN/A
2:00 PM88 °FPartly sunny.7 mph70%29.83 "HgN/A
1:00 PM86 °FPartly sunny.5 mph75%29.83 "HgN/A
12:00 PM84 °FPartly sunny.5 mph79%29.86 "HgN/A
Weather by CustomWeather, © 2014

See weather overviewHow to use our weather pages